Buckhannon, WV

3:00 PM EST on December 13, 2017 (GMT -0500)
Buckhannon

Weather History for KW22 - January, 2014

Change the Weather History Date:

Thursday, January 2, 2014

  Actual Average (KCKB) Record (KCKB)
Temperature  
Mean Temperature 27 °F -  
Max Temperature 39 °F 40 °F 72 °F (1952)
Min Temperature 15 °F 23 °F -7 °F (1968)
Degree Days  
Heating Degree Days 38    
Moisture  
Dew Point 27 °F    
Average Humidity 86    
Maximum Humidity 100    
Minimum Humidity 65    
Precipitation  
Precipitation 10.41 in - - ()
Sea Level Pressure  
Sea Level Pressure 29.80 in    
Wind  
Wind Speed 1 mph (West)    
Max Wind Speed 9 mph    
Max Gust Speed -    
Visibility 6 miles    
Events Rain , Snow    
Averages and records for this station are not official NWS values.
T = Trace of Precipitation, MM = Missing Value Source: NWS Daily Summary

Daily Weather History Graph

Daily Weather History Graph

Search for Another Location

Airport or City:

Trip Planner

Search our weather history database for the weather conditions in past years. The results will help you decide how hot, cold, wet, or windy it might be!

Date:

Astronomy

Jan. 02, 2014 Rise Set
Actual Time 7:40 AM EST 5:10 PM EST
Civil Twilight 7:10 AM EST 5:40 PM EST
Nautical Twilight 6:36 AM EST 6:13 PM EST
Astronomical Twilight 6:04 AM EST 6:46 PM EST
Moon 8:21 AM EST (1/2) 7:04 PM EST (1/2)
Length of Visible Light 10h 29m
Length of Day
9h 30m
New Moon, 2% of the Moon is Illuminated
Jan 2
New Moon
Jan 7
First Quarter
Jan 15
Full
Jan 24
Last Quarter
Jan 30
New

Hourly Weather History & Observations

Time (EST) Temp. Windchill Dew Point Humidity Pressure Visibility Wind Dir Wind Speed Gust Speed Precip Events Conditions
12:15 AM 32.0 °F - 28.4 °F 87% 30.02 in 10.0 mi Calm Calm - N/A   Clear
12:35 AM 32.0 °F - 28.4 °F 87% 30.02 in 10.0 mi Calm Calm - N/A   Clear
12:55 AM 32.0 °F - 26.6 °F 80% 30.01 in 10.0 mi Calm Calm - N/A   Clear
1:15 AM 30.2 °F - 28.4 °F 93% 30.00 in 10.0 mi Calm Calm - N/A   Clear
1:35 AM 30.2 °F - 26.6 °F 86% 30.00 in 10.0 mi Calm Calm - N/A   Clear
1:55 AM 30.2 °F - 26.6 °F 86% 30.00 in 10.0 mi Calm Calm - N/A   Clear
2:15 AM 32.0 °F - 26.6 °F 80% 29.99 in 10.0 mi Calm Calm - N/A   Clear
2:35 AM 30.2 °F - 26.6 °F 86% 29.99 in 10.0 mi Calm Calm - N/A   Clear
2:55 AM 32.0 °F - 24.8 °F 75% 29.99 in 10.0 mi Calm Calm - N/A   Clear
3:15 AM 32.0 °F - 26.6 °F 80% 29.98 in 10.0 mi Calm Calm - N/A   Clear
3:35 AM 32.0 °F - 23.0 °F 69% 29.97 in 10.0 mi Calm Calm - N/A   Clear
3:55 AM 32.0 °F - 23.0 °F 69% 29.95 in 10.0 mi Calm Calm - N/A   Clear
4:15 AM 32.0 °F - 23.0 °F 69% 29.94 in 10.0 mi Calm Calm - N/A   Clear
4:35 AM 30.2 °F - 24.8 °F 80% 29.93 in 10.0 mi Calm Calm - N/A   Clear
4:55 AM 30.2 °F - 26.6 °F 86% 29.92 in 10.0 mi Calm Calm - N/A   Clear
5:15 AM 30.2 °F - 26.6 °F 86% 29.92 in 10.0 mi Calm Calm - N/A   Clear
5:35 AM 32.0 °F - 24.8 °F 75% 29.91 in 10.0 mi Calm Calm - N/A   Clear
5:55 AM 30.2 °F - 24.8 °F 80% 29.90 in 10.0 mi Calm Calm - N/A   Clear
6:15 AM 32.0 °F - 23.0 °F 69% 29.90 in 10.0 mi Calm Calm - N/A   Clear
6:35 AM 30.2 °F - 24.8 °F 80% 29.89 in 10.0 mi Calm Calm - N/A   Clear
6:55 AM 32.0 °F - 23.0 °F 69% 29.89 in 10.0 mi Calm Calm - N/A   Partly Cloudy
7:15 AM 32.0 °F - 23.0 °F 69% 29.89 in 10.0 mi Calm Calm - N/A   Mostly Cloudy
7:35 AM 32.0 °F - 23.0 °F 69% 29.88 in 10.0 mi Calm Calm - N/A   Scattered Clouds
7:55 AM 32.0 °F - 23.0 °F 69% 29.88 in 10.0 mi Calm Calm - N/A   Scattered Clouds
8:15 AM 32.0 °F - 23.0 °F 69% 29.86 in 10.0 mi Calm Calm - N/A   Clear
8:35 AM 32.0 °F - 23.0 °F 69% 29.85 in 10.0 mi Calm Calm - N/A   Clear
8:55 AM 32.0 °F - 26.6 °F 80% 29.85 in 10.0 mi Calm Calm - N/A   Clear
9:15 AM 32.0 °F - 28.4 °F 87% 29.84 in 10.0 mi Calm Calm - N/A   Clear
9:35 AM 33.8 °F - 28.4 °F 81% 29.82 in 10.0 mi Calm Calm - N/A   Clear
9:55 AM 33.8 °F - 30.2 °F 87% 29.80 in 10.0 mi Calm Calm - N/A   Scattered Clouds
10:15 AM 37.4 °F - 26.6 °F 65% 29.79 in 10.0 mi Calm Calm - N/A   Scattered Clouds
10:35 AM 37.4 °F - 28.4 °F 70% 29.77 in 10.0 mi Calm Calm - N/A   Mostly Cloudy
10:55 AM 39.2 °F - 30.2 °F 70% 29.75 in 10.0 mi Calm Calm - N/A   Mostly Cloudy
11:15 AM 39.2 °F - 28.4 °F 65% 29.73 in 10.0 mi Calm Calm - N/A   Mostly Cloudy
11:35 AM 39.2 °F 35.0 °F 28.4 °F 65% 29.72 in 10.0 mi South 5.8 mph - N/A   Overcast
11:55 AM 39.2 °F 34.2 °F 30.2 °F 70% 29.72 in 10.0 mi SSW 6.9 mph - N/A   Overcast
12:15 PM 39.2 °F - 32.0 °F 75% 29.68 in 10.0 mi Calm Calm - N/A   Overcast
12:35 PM 39.2 °F 33.6 °F 32.0 °F 75% 29.68 in 10.0 mi SSW 8.1 mph - N/A   Overcast
12:55 PM 39.2 °F 35.9 °F 32.0 °F 75% 29.67 in 10.0 mi SW 4.6 mph - N/A   Overcast
1:15 PM 39.2 °F - 32.0 °F 75% 29.65 in 4.0 mi Calm Calm - N/A   Overcast
1:35 PM 37.4 °F - 33.8 °F 87% 29.64 in 4.0 mi Calm Calm - 0.01 in Rain Light Rain
1:55 PM 37.4 °F - 35.6 °F 93% 29.63 in 1.5 mi Calm Calm - 0.01 in   Overcast
2:15 PM 35.6 °F - 35.6 °F 100% 29.63 in 1.8 mi Calm Calm - N/A   Overcast
2:35 PM 35.6 °F - 35.6 °F 100% 29.62 in 1.2 mi Calm Calm - 0.01 in   Overcast
2:55 PM 33.8 °F 30.8 °F 33.8 °F 100% 29.63 in 1.2 mi NW 3.5 mph - 0.02 in   Overcast
3:15 PM 33.8 °F - 33.8 °F 100% 29.62 in 0.5 mi Calm Calm - 0.01 in   Overcast
3:35 PM 33.8 °F - 33.8 °F 100% 29.62 in 0.5 mi Calm Calm - 0.04 in   Overcast
3:55 PM 32.0 °F - 32.0 °F 100% 29.63 in 0.2 mi Calm Calm - 0.11 in Snow Light Snow
4:15 PM 32.0 °F - 32.0 °F 100% 29.64 in 0.8 mi Calm Calm - 0.12 in Snow Light Snow
4:35 PM 32.0 °F - 32.0 °F 100% 29.64 in 0.5 mi Calm Calm - 0.35 in Snow Light Snow
4:55 PM 32.0 °F 28.7 °F 32.0 °F 100% 29.65 in 0.5 mi NW 3.5 mph - 0.59 in Snow Light Snow
5:15 PM 32.0 °F - 32.0 °F 100% 29.65 in 0.8 mi Calm Calm - 0.08 in Snow Light Snow
5:35 PM 32.0 °F 28.7 °F 32.0 °F 100% 29.66 in 1.5 mi West 3.5 mph - 0.25 in Snow Light Snow
5:55 PM 32.0 °F 26.4 °F 32.0 °F 100% 29.66 in 1.5 mi West 5.8 mph - 0.47 in Snow Light Snow
6:15 PM 32.0 °F 26.4 °F 32.0 °F 100% 29.67 in 1.5 mi West 5.8 mph - 0.14 in Snow Light Snow
6:35 PM 32.0 °F 24.8 °F 32.0 °F 100% 29.67 in 5.0 mi West 8.1 mph - 0.19 in Rain Light Rain
6:55 PM 32.0 °F 24.8 °F 32.0 °F 100% 29.69 in 3.0 mi West 8.1 mph - 0.25 in Snow Light Snow
7:15 PM 32.0 °F 27.5 °F 32.0 °F 100% 29.69 in 2.0 mi NW 4.6 mph - 0.11 in Snow Snow
7:35 PM 30.2 °F 21.9 °F 30.2 °F 100% 29.70 in 1.5 mi NW 9.2 mph - 0.45 in Snow Light Snow
7:55 PM 28.4 °F - 28.4 °F 100% 29.71 in 1.0 mi Calm Calm - 0.78 in Snow Snow
8:15 PM 26.6 °F - 26.6 °F 100% 29.73 in 1.2 mi Calm Calm - 0.20 in Snow Light Snow
8:35 PM 23.0 °F - 23.0 °F 100% 29.75 in 1.5 mi Calm Calm - 0.43 in Snow Light Snow
8:55 PM 21.2 °F - 21.2 °F 100% 29.76 in 1.5 mi Calm Calm - 0.69 in Snow Light Snow
9:15 PM 21.2 °F - 19.4 °F 93% 29.78 in 1.2 mi Calm Calm - 0.21 in Snow Light Snow
9:35 PM 19.4 °F - 17.6 °F 93% 29.79 in 2.0 mi Calm Calm - 0.47 in Snow Snow
9:55 PM 19.4 °F - 17.6 °F 93% 29.81 in 0.8 mi Calm Calm - 1.10 in Snow Snow
10:15 PM 19.4 °F - 17.6 °F 93% 29.82 in 0.5 mi Calm Calm - 1.17 in Snow Snow
10:35 PM 17.6 °F - 15.8 °F 93% 29.83 in 0.5 mi Calm Calm - 2.60 in Snow Heavy Snow
10:55 PM 15.8 °F - 14.0 °F 93% 29.86 in 0.8 mi Calm Calm - 3.97 in Snow Snow
11:15 PM 15.8 °F - 14.0 °F 93% 29.87 in 0.8 mi Calm Calm - 0.72 in Snow Snow
11:35 PM 15.8 °F - 14.0 °F 93% 29.89 in 1.0 mi Calm Calm - 1.47 in Snow Heavy Snow
11:55 PM 15.8 °F - 14.0 °F 93% 29.90 in 0.8 mi Calm Calm - 2.42 in Snow Snow